Regional Weather Roundup
Issued by NWS

Home | Current Version | Previous Version | Text Only | Print | Product List | Glossary Off
Versions: 1 2 3 4 5 6 7 8 9 10 11 12 13 14 15 16 17 18 19 20 21 22 23 24 25 26 27 28 29 30 31 32 33 34 35 36 37 38 39 40 41 42 43 44 45 46 47 48 49 50

000
ASUS43 KLSX 260107
RWRMO

WEATHER SUMMARY FOR MISSOURI
NATIONAL WEATHER SERVICE SPRINGFIELD MO
700 PM CST THU DEC 25 2014

NOTE: "FAIR" INDICATES FEW OR NO CLOUDS BELOW 12,000 FEET WITH NO
       SIGNIFICANT WEATHER AND/OR OBSTRUCTIONS TO VISIBILITY.
       CURRENT SKY AND/OR WEATHER CONDITIONS ARE NOT AVAILABLE FOR
       CHILLICOTHE AND FARMINGTON.

MOZ001>031-035>038-043-044-053-054-260200-
...NORTHERN AND WESTERN MISSOURI...

CITY           SKY/WX    TMP DP  RH WIND       PRES   REMARKS
KANSAS CTY INT CLOUDY    50  30  46 S21G29    29.73R
KANSAS C DTWN  CLOUDY    52  29  41 S13       29.76R
LEE`S SUMMIT   CLOUDY    50  29  44 S16G24    29.76R
ST JOSEPH      MOCLDY    48  31  51 S13       29.73R
CHILLICOTHE      N/A     50  31  48 S12       29.78R
KIRKSVILLE     PTCLDY    42  32  67 S13       29.81R

$$
MOZ066>068-077>081-088>096-101>105-260200-
...SOUTHWEST MISSOURI...

CITY           SKY/WX    TMP DP  RH WIND       PRES   REMARKS
SPRINGFIELD    CLOUDY    47  28  47 S20G28    29.87S
JOPLIN         CLOUDY    51  27  39 S20G30    29.83R

$$
MOZ032>034-039>042-045>050-055>058-069>072-260200-
...CENTRAL MISSOURI...

CITY           SKY/WX    TMP DP  RH WIND       PRES   REMARKS
COLUMBIA       MOCLDY    46  30  53 S17G26    29.85F
JEFFERSON CITY MOCLDY    48  29  47 SE12      29.89S
ROLLA          MOCLDY    44  31  60 S17       29.89F
SEDALIA        MOCLDY    48  29  47 S18G26    29.81S
WHITEMAN AFB   CLOUDY    47  31  53 S14G21    29.78R
WARRENSBURG    CLOUDY    50  30  46 S13G18    29.79R
OSAGE BEACH    MOCLDY    46  28  49 S10G16    29.89R

$$
MOZ051-052-059>065-260200-
...EAST CENTRAL MISSOURI...

CITY           SKY/WX    TMP DP  RH WIND       PRES   REMARKS
ST LOUIS INTL  MOCLDY    47  33  58 S14       29.98S
SPIRIT OF STL  PTCLDY    46  32  58 S10       29.96S
ST CHARLES     PTCLDY    43  34  70 SE13      29.97R

$$
MOZ072>076-082>087-097>100-106>115-260200-
...SOUTH CENTRAL AND SOUTHEAST MISSOURI...

CITY           SKY/WX    TMP DP  RH WIND       PRES   REMARKS
CAPE GIRARDEAU CLEAR     42  36  79 SE8       30.08S
FARMINGTON     PTCLDY    43  34  70 SE12      30.03S
POPLAR BLUFF   PTCLDY    46  35  65 S14G22    30.07S
WEST PLAINS    PTCLDY    45  31  58 S12       30.00R

$$


USA.gov is the U.S. government's official web portal to all federal, state and local government web resources and services.